KB5DPX Weather Reports


Display with metric or nautical units.
time (UTC)temp
F
wind
direction
speed
MPH
gust
MPH
rain 1hr
in
rain 24hr
in
rain mn
in
humidity
%
barometer
mb
20260510182733 44 307 9.0 13.0 0.00 0.00 0.00 70 1018.8
20260510182219 43 290 9.0 13.0 0.00 0.00 0.00 73 1018.7
20260510181733 43 280 7.0 12.0 0.00 0.00 0.00 74 1018.6
20260510181239 43 304 8.0 15.0 0.00 0.00 0.00 74 1018.6
20260510180741 43 300 9.0 15.0 0.00 0.00 0.00 74 1018.6
20260510180228 44 288 8.0 17.0 0.00 0.00 0.00 73 1018.6
20260510175727 44 271 8.0 17.0 0.00 0.00 0.00 72 1018.6
20260510175233 44 300 9.0 15.0 0.00 0.00 0.00 71 1018.5
20260510174719 44 296 9.0 15.0 0.00 0.00 0.00 68 1018.5
20260510174214 45 271 11.0 17.0 0.00 0.00 0.00 69 1018.4
20260510173729 45 292 10.0 17.0 0.00 0.00 0.00 70 1018.4
20260510173234 45 321 9.0 16.0 0.00 0.00 0.00 71 1018.4
20260510172728 44 292 8.0 19.0 0.00 0.00 0.00 71 1018.3
20260510172215 44 288 13.0 19.0 0.00 0.00 0.00 72 1018.4
20260510171730 44 273 13.0 19.0 0.00 0.00 0.00 71 1018.4
20260510171217 45 294 11.0 19.0 0.00 0.00 0.00 70 1018.3
20260510170731 46 308 12.0 21.0 0.00 0.00 0.00 69 1018.4
20260510170233 46 279 12.0 21.0 0.00 0.00 0.00 68 1018.2
20260510165730 45 269 11.0 21.0 0.00 0.00 0.00 70 1018.1
20260510165217 44 281 9.0 21.0 0.00 0.00 0.00 72 1018.2
20260510164728 44 280 14.0 20.0 0.00 0.00 0.00 70 1018.1
20260510164214 43 272 12.0 23.0 0.00 0.00 0.00 71 1018.1
20260510163728 43 266 13.0 18.0 0.00 0.00 0.00 71 1018.1
20260510163232 43 286 10.0 20.0 0.00 0.00 0.00 72 1018.1
20260510162730 43 303 12.0 20.0 0.00 0.00 0.00 70 1018.1
20260510162216 44 274 13.0 20.0 0.00 0.00 0.00 69 1018.0
20260510161731 44 319 12.0 20.0 0.00 0.00 0.00 69 1017.8
20260510161218 44 281 11.0 17.0 0.00 0.00 0.00 67 1017.8
20260510160729 45 281 13.0 17.0 0.00 0.00 0.00 66 1017.7
20260510160234 46 283 12.0 16.0 0.00 0.00 0.00 66 1017.6
20260510155732 46 285 12.0 16.0 0.00 0.00 0.00 66 1017.6
20260510155219 46 291 12.0 18.0 0.00 0.00 0.00 66 1017.5
20260510154733 46 293 12.0 18.0 0.00 0.00 0.00 68 1017.5
20260510154236 45 290 12.0 17.0 0.00 0.00 0.00 69 1017.5
20260510153740 45 300 12.0 20.0 0.00 0.00 0.00 68 1017.4
20260510153238 45 285 13.0 20.0 0.00 0.00 0.00 70 1017.3
20260510152715 45 274 13.0 19.0 0.00 0.00 0.00 70 1017.2
20260510152228 45 285 10.0 16.0 0.00 0.00 0.00 68 1017.1
20260510151733 46 278 10.0 16.0 0.00 0.00 0.00 68 1017.1
20260510151236 46 293 11.0 16.0 0.00 0.00 0.00 69 1017.0
20260510150720 45 297 10.0 16.0 0.00 0.00 0.00 69 1016.9
20260510150235 46 302 9.0 14.0 0.00 0.00 0.00 68 1016.8
20260510145728 45 297 9.0 13.0 0.00 0.00 0.00 68 1016.8
20260510145233 45 303 10.0 13.0 0.00 0.00 0.00 68 1016.8
20260510144738 45 296 9.0 11.0 0.00 0.00 0.00 67 1016.8
20260510144241 45 313 8.0 12.0 0.00 0.00 0.00 67 1016.7
20260510143724 45 313 7.0 14.0 0.00 0.00 0.00 67 1016.7
20260510143238 45 284 8.0 14.0 0.00 0.00 0.00 65 1016.6
20260510142737 45 298 9.0 12.0 0.00 0.00 0.00 65 1016.6
20260510142238 45 302 8.0 12.0 0.00 0.00 0.00 65 1016.6
20260510141742 45 304 5.0 13.0 0.00 0.00 0.00 64 1016.5
20260510141226 45 271 9.0 13.0 0.00 0.00 0.00 64 1016.5
20260510140731 44 289 9.0 12.0 0.00 0.00 0.00 66 1016.5
20260510140217 44 273 7.0 12.0 0.00 0.00 0.00 65 1016.5
20260510135723 44 275 5.0 12.0 0.00 0.00 0.00 66 1016.5
20260510135236 45 273 10.0 12.0 0.00 0.00 0.00 65 1016.5
20260510134718 44 286 7.0 12.0 0.00 0.00 0.00 67 1016.4
20260510134228 45 288 6.0 11.0 0.00 0.00 0.00 66 1016.4
20260510133734 45 301 8.0 11.0 0.00 0.00 0.00 67 1016.4
20260510133239 44 290 8.0 15.0 0.00 0.00 0.00 68 1016.5
20260510132717 44 282 8.0 15.0 0.00 0.00 0.00 69 1016.5
20260510132230 44 273 9.0 13.0 0.00 0.00 0.00 71 1016.5
20260510131715 44 270 8.0 12.0 0.00 0.00 0.00 71 1016.4
20260510131228 43 285 7.0 14.0 0.00 0.00 0.00 71 1016.3
20260510130740 43 268 8.0 14.0 0.00 0.00 0.00 72 1016.3
20260510130238 43 281 9.0 13.0 0.00 0.00 0.00 72 1016.3
20260510125734 43 289 6.0 13.0 0.00 0.00 0.00 73 1016.3
20260510125239 43 290 8.0 13.0 0.00 0.00 0.00 72 1016.3
20260510124723 43 273 9.0 15.0 0.00 0.00 0.00 72 1016.2
20260510124237 43 284 8.0 12.0 0.00 0.00 0.00 73 1016.2
20260510123721 43 296 7.0 12.0 0.00 0.00 0.00 72 1016.0
20260510123234 43 280 9.0 12.0 0.00 0.00 0.00 73 1016.0
20260510122729 43 293 9.0 12.0 0.00 0.00 0.00 74 1015.9
20260510122215 43 272 5.0 11.0 0.00 0.00 0.00 74 1015.9
20260510121729 42 279 6.0 10.0 0.00 0.00 0.00 75 1015.8
20260510121216 42 274 0.0 9.0 0.00 0.00 0.00 76 1015.8
20260510120731 41 271 5.0 9.0 0.00 0.00 0.00 78 1015.8
20260510120235 41 265 6.0 9.0 0.00 0.00 0.00 78 1015.7
20260510115732 40 265 6.0 9.0 0.00 0.00 0.00 79 1015.6
20260510115218 40 265 3.0 8.0 0.00 0.00 0.00 80 1015.5
20260510114728 39 265 5.0 8.0 0.00 0.00 0.00 80 1015.5
20260510114217 39 265 3.0 11.0 0.00 0.00 0.00 80 1015.4
20260510113729 39 265 5.0 11.0 0.00 0.00 0.00 80 1015.4
20260510113237 39 265 4.0 10.0 0.00 0.00 0.00 80 1015.3
20260510112717 39 266 5.0 10.0 0.00 0.00 0.00 81 1015.3
20260510112232 39 267 7.0 10.0 0.00 0.00 0.00 82 1015.2
20260510111719 39 268 0.0 7.0 0.00 0.00 0.00 83 1015.1
20260510111235 38 268 0.0 7.0 0.00 0.00 0.00 83 1015.1
20260510110736 38 268 0.0 7.0 0.00 0.00 0.00 83 1015.1
20260510110241 38 268 0.0 9.0 0.00 0.00 0.00 83 1015.0
20260510105718 37 268 5.0 9.0 0.00 0.00 0.00 83 1014.9
20260510105228 37 269 4.0 9.0 0.00 0.00 0.00 83 1014.8
20260510104716 37 271 2.0 7.0 0.00 0.00 0.00 83 1014.7
20260510104232 37 271 4.0 7.0 0.00 0.00 0.00 83 1014.6
20260510103718 37 271 3.0 8.0 0.00 0.00 0.00 83 1014.5
20260510103214 37 271 5.0 8.0 0.00 0.00 0.00 83 1014.5
20260510102720 37 271 4.0 11.0 0.00 0.00 0.00 83 1014.4
20260510102229 37 271 4.0 11.0 0.00 0.00 0.00 83 1014.3
20260510101716 37 271 5.0 10.0 0.00 0.00 0.00 83 1014.2
20260510101232 37 271 4.0 10.0 0.00 0.00 0.00 84 1014.0
20260510100718 37 271 4.0 10.0 0.00 0.00 0.00 84 1013.9
20260510100233 37 271 6.0 10.0 0.00 0.00 0.00 83 1013.9
20260510095731 38 270 5.0 8.0 0.00 0.00 0.00 83 1013.9
20260510095219 38 270 3.0 9.0 0.00 0.00 0.00 83 1013.9
20260510094736 38 270 5.0 9.0 0.00 0.00 0.00 82 1013.8
20260510094239 38 270 4.0 12.0 0.00 0.00 0.00 82 1013.8
20260510093726 38 270 8.0 12.0 0.00 0.00 0.00 82 1013.8
20260510093234 38 268 7.0 12.0 0.00 0.00 0.00 82 1013.7
20260510092733 38 267 6.0 12.0 0.00 0.00 0.00 82 1013.6
20260510092221 38 273 7.0 12.0 0.00 0.00 0.00 82 1013.5
20260510091714 38 273 5.0 9.0 0.00 0.00 0.00 83 1013.5
20260510091230 38 268 6.0 12.0 0.00 0.00 0.00 83 1013.4
20260510090718 38 268 7.0 12.0 0.00 0.00 0.00 83 1013.4
20260510090228 38 271 7.0 12.0 0.00 0.00 0.00 83 1013.3
20260510085728 38 277 4.0 12.0 0.00 0.00 0.00 83 1013.2
20260510085233 38 262 7.0 11.0 0.00 0.00 0.00 83 1013.2
20260510084720 38 263 7.0 9.0 0.00 0.00 0.00 83 1013.1
20260510084237 38 263 3.0 12.0 0.00 0.00 0.00 84 1013.2
20260510083726 38 273 5.0 12.0 0.00 0.00 0.00 84 1013.1
20260510083240 38 251 4.0 9.0 0.00 0.00 0.00 83 1013.1
20260510082720 38 250 4.0 9.0 0.00 0.00 0.00 83 1013.1
20260510082215 38 250 4.0 9.0 0.00 0.00 0.00 83 1013.0
20260510081730 38 250 6.0 12.0 0.00 0.00 0.00 83 1012.9
20260510081240 38 251 7.0 12.0 0.00 0.00 0.00 83 1013.0
20260510080729 38 263 6.0 10.0 0.00 0.00 0.00 83 1013.0
20260510080217 38 269 5.0 9.0 0.00 0.00 0.00 82 1012.9
20260510075741 38 270 3.0 8.0 0.00 0.00 0.00 82 1012.8
20260510075231 38 270 4.0 8.0 0.00 0.00 0.00 82 1012.7
20260510074720 38 270 3.0 8.0 0.00 0.00 0.00 82 1012.7
20260510074215 38 270 6.0 11.0 0.00 0.00 0.00 82 1012.5
20260510073727 38 283 5.0 9.0 0.00 0.00 0.00 83 1012.5
20260510073235 38 292 4.0 8.0 0.00 0.00 0.00 84 1012.4
20260510072714 37 293 4.0 8.0 0.00 0.00 0.00 84 1012.3
20260510072231 37 293 3.0 8.0 0.00 0.00 0.00 84 1012.3
20260510071720 37 293 3.0 8.0 0.00 0.00 0.00 84 1012.2
20260510071233 37 294 3.0 7.0 0.00 0.00 0.00 84 1012.2
20260510070720 37 294 3.0 7.0 0.00 0.00 0.00 85 1012.0
20260510070237 37 294 3.0 5.0 0.00 0.00 0.00 85 1012.0
20260510065717 37 294 3.0 5.0 0.00 0.00 0.00 84 1011.9
20260510065229 37 294 3.0 5.0 0.00 0.00 0.00 83 1011.9
20260510064738 37 294 2.0 5.0 0.00 0.00 0.00 83 1011.9
20260510064227 38 294 3.0 7.0 0.00 0.00 0.00 83 1011.9
20260510063716 38 294 4.0 7.0 0.00 0.00 0.00 83 1012.0
20260510063233 38 294 3.0 7.0 0.00 0.00 0.00 83 1011.9
20260510062733 38 294 3.0 5.0 0.00 0.00 0.00 83 1011.9
20260510062221 38 294 2.0 5.0 0.00 0.00 0.00 83 1011.8
20260510061737 38 294 2.0 5.0 0.00 0.00 0.00 83 1011.7
20260510061222 38 294 3.0 5.0 0.00 0.00 0.00 83 1011.8
20260510060740 38 294 3.0 5.0 0.00 0.00 0.00 83 1011.7
20260510060228 38 294 3.0 5.0 0.00 0.00 0.00 82 1011.7
20260510055728 38 294 3.0 5.0 0.00 0.00 0.00 82 1011.7
20260510055217 39 294 2.0 5.0 0.00 0.00 0.00 81 1011.7
20260510054734 39 294 3.0 7.0 0.00 0.00 0.00 81 1011.5
20260510054223 39 294 3.0 7.0 0.00 0.00 0.00 80 1011.5
20260510053741 39 294 4.0 7.0 0.00 0.00 0.00 80 1011.4
20260510053229 39 294 3.0 5.0 0.00 0.00 0.00 80 1011.4
20260510052725 39 294 2.0 5.0 0.00 0.00 0.00 80 1011.5
20260510052214 40 294 2.0 7.0 0.00 0.00 0.00 79 1011.5
20260510051730 40 294 3.0 7.0 0.00 0.00 0.00 79 1011.4
20260510051220 40 294 3.0 7.0 0.00 0.00 0.00 78 1011.4
20260510050715 40 294 3.0 8.0 0.00 0.00 0.00 78 1011.3
20260510050232 40 294 4.0 9.0 0.00 0.00 0.00 77 1011.3
20260510045732 40 294 5.0 9.0 0.00 0.00 0.00 77 1011.2
20260510045239 40 292 5.0 11.0 0.00 0.00 0.00 76 1011.1
20260510044740 40 292 8.0 11.0 0.00 0.00 0.00 76 1011.2
20260510044228 40 305 5.0 10.0 0.00 0.00 0.00 76 1011.2
20260510043736 40 294 6.0 11.0 0.00 0.00 0.00 76 1011.2
20260510043237 40 286 6.0 11.0 0.00 0.00 0.00 76 1011.1
20260510042716 40 293 5.0 8.0 0.00 0.00 0.00 76 1011.0
20260510042232 41 293 3.0 7.0 0.00 0.00 0.00 75 1011.0
20260510041718 41 293 5.0 7.0 0.00 0.00 0.00 74 1011.0
20260510041234 41 294 5.0 8.0 0.00 0.00 0.00 74 1011.0
20260510040735 41 294 5.0 8.0 0.00 0.00 0.00 73 1010.9
20260510040239 42 294 4.0 8.0 0.00 0.00 0.00 72 1010.9
20260510035727 42 296 5.0 10.0 0.00 0.00 0.00 69 1010.8
20260510035241 42 298 7.0 10.0 0.00 0.00 0.00 68 1010.7
20260510034730 42 306 4.0 9.0 0.00 0.00 0.00 68 1010.7
20260510034219 42 307 6.0 11.0 0.00 0.00 0.00 68 1010.6
20260510033714 42 316 6.0 11.0 0.00 0.00 0.00 67 1010.4
20260510033230 43 304 7.0 13.0 0.00 0.00 0.00 67 1010.4
20260510032726 43 323 7.0 13.0 0.00 0.00 0.00 66 1010.3
20260510032214 43 323 8.0 13.0 0.00 0.00 0.00 66 1010.3
20260510031729 43 327 9.0 13.0 0.00 0.00 0.00 66 1010.3
20260510031237 43 308 8.0 14.0 0.00 0.00 0.00 66 1010.4
20260510030725 43 310 9.0 14.0 0.00 0.00 0.00 66 1010.4
20260510030242 43 298 8.0 18.0 0.00 0.00 0.00 67 1010.4
20260510025733 43 320 12.0 18.0 0.00 0.00 0.00 66 1010.4
20260510025228 43 323 10.0 17.0 0.00 0.00 0.00 67 1010.3
20260510024732 43 312 8.0 13.0 0.00 0.00 0.00 67 1010.2
20260510024235 42 309 7.0 13.0 0.00 0.00 0.00 68 1010.1
20260510023738 42 341 8.0 13.0 0.00 0.00 0.00 71 1010.1
20260510023219 42 310 7.0 14.0 0.00 0.00 0.00 73 1010.1
20260510022724 42 308 8.0 14.0 0.00 0.00 0.00 74 1010.1
20260510022236 42 298 7.0 14.0 0.00 0.00 0.00 74 1010.1
20260510021733 42 274 9.0 14.0 0.00 0.00 0.00 75 1010.0
20260510021235 42 283 7.0 14.0 0.00 0.00 0.00 76 1010.0
20260510020737 42 279 8.0 14.0 0.00 0.00 0.00 76 1010.0
20260510020219 42 273 8.0 12.0 0.00 0.00 0.00 76 1010.0
20260510015743 42 279 7.0 11.0 0.00 0.00 0.00 76 1009.9
20260510015225 42 279 6.0 10.0 0.00 0.00 0.00 76 1009.9
20260510014736 42 284 6.0 10.0 0.00 0.00 0.00 75 1009.8
20260510014234 43 286 5.0 9.0 0.00 0.00 0.00 74 1009.6
20260510013736 43 291 3.0 11.0 0.00 0.00 0.00 73 1009.5
20260510013219 43 292 6.0 11.0 0.00 0.00 0.00 71 1009.4
20260510012743 44 298 6.0 11.0 0.00 0.00 0.00 69 1009.2
20260510012225 44 313 6.0 12.0 0.00 0.00 0.00 67 1009.1
20260510011742 44 314 7.0 14.0 0.00 0.00 0.00 66 1009.0
20260510011225 45 306 9.0 14.0 0.00 0.00 0.00 65 1008.8
20260510010743 45 310 8.0 14.0 0.00 0.00 0.00 65 1008.8
20260510010243 45 311 8.0 14.0 0.00 0.00 0.00 65 1008.8
20260510005739 45 318 9.0 14.0 0.00 0.00 0.00 65 1008.6
20260510005242 45 311 8.0 15.0 0.00 0.00 0.00 66 1008.6
20260510004724 45 324 11.0 16.0 0.00 0.00 0.00 65 1008.5
20260510004243 45 296 10.0 19.0 0.00 0.00 0.00 65 1008.5
20260510003725 46 355 13.0 19.0 0.00 0.00 0.00 64 1008.3
20260510003241 46 319 7.0 13.0 0.00 0.00 0.00 66 1008.2
20260510002733 46 308 8.0 12.0 0.00 0.00 0.00 66 1008.2
20260510002234 46 336 8.0 16.0 0.00 0.00 0.00 65 1008.1
20260510001738 47 320 10.0 16.0 0.00 0.00 0.00 66 1007.9
20260510001221 47 289 9.0 14.0 0.00 0.00 0.00 66 1007.8
20260510000733 47 300 9.0 16.0 0.00 0.00 0.00 67 1007.7
20260510000219 47 318 10.0 16.0 0.00 0.00 0.00 67 1007.6
20260509235724 47 302 10.0 16.0 0.00 0.00 0.00 67 1007.6
20260509235234 47 338 9.0 16.0 0.00 0.00 0.00 66 1007.4
20260509234733 47 323 9.0 19.0 0.00 0.00 0.00 68 1007.2
20260509234218 47 312 9.0 19.0 0.00 0.00 0.00 67 1007.1
20260509233732 47 306 9.0 14.0 0.00 0.00 0.00 67 1006.9
20260509233217 47 319 7.0 16.0 0.00 0.00 0.00 67 1006.8
20260509232723 48 311 11.0 23.0 0.00 0.00 0.00 66 1006.6
20260509232238 48 333 12.0 23.0 0.00 0.00 0.00 66 1006.6
20260509231722 48 325 10.0 21.0 0.00 0.00 0.00 65 1006.4
20260509231234 49 296 13.0 21.0 0.00 0.00 0.00 64 1006.2
20260509230735 49 338 11.0 20.0 0.00 0.00 0.00 64 1006.2
20260509230237 49 292 12.0 23.0 0.00 0.00 0.00 63 1006.0
20260509225733 49 302 10.0 23.0 0.00 0.00 0.00 62 1005.9
20260509225236 48 311 13.0 20.0 0.00 0.00 0.00 63 1005.8
20260509224720 48 299 11.0 18.0 0.00 0.00 0.00 63 1005.7
20260509224233 49 290 10.0 17.0 0.00 0.00 0.00 61 1005.6
20260509223735 49 292 10.0 20.0 0.00 0.00 0.00 60 1005.5
20260509223216 49 301 11.0 20.0 0.00 0.00 0.00 60 1005.4
20260509222722 49 294 8.0 18.0 0.00 0.00 0.00 59 1005.3
20260509222232 48 294 10.0 18.0 0.00 0.00 0.00 59 1005.4
20260509221737 49 281 7.0 16.0 0.00 0.00 0.00 57 1005.3
20260509221222 49 300 8.0 16.0 0.00 0.00 0.00 55 1005.2
20260509220735 49 296 9.0 15.0 0.00 0.00 0.00 53 1005.0
20260509220219 49 300 10.0 15.0 0.00 0.00 0.00 53 1004.9
20260509215723 50 288 5.0 15.0 0.00 0.00 0.00 53 1004.8
20260509215232 50 294 10.0 15.0 0.00 0.00 0.00 53 1004.6
20260509214737 50 310 7.0 15.0 0.00 0.00 0.00 53 1004.6
20260509214242 50 309 10.0 15.0 0.00 0.00 0.00 55 1004.6
20260509213726 50 281 9.0 16.0 0.00 0.00 0.00 55 1004.5
20260509213236 50 296 8.0 18.0 0.00 0.00 0.00 56 1004.3
20260509212730 49 270 10.0 15.0 0.00 0.00 0.00 59 1004.3
20260509212240 49 290 9.0 15.0 0.00 0.00 0.00 61 1004.2
20260509211717 48 281 9.0 16.0 0.00 0.00 0.00 64 1004.2
20260509211229 48 279 10.0 16.0 0.00 0.00 0.00 65 1004.1
20260509210734 48 288 8.0 14.0 0.00 0.00 0.00 66 1004.0
20260509210239 47 274 8.0 13.0 0.00 0.00 0.00 68 1004.0
20260509205733 47 281 8.0 16.0 0.00 0.00 0.00 69 1003.8
20260509205236 47 292 8.0 15.0 0.00 0.00 0.00 70 1003.7
20260509204738 47 278 9.0 14.0 0.00 0.00 0.00 71 1003.6
20260509204218 46 273 9.0 15.0 0.00 0.00 0.00 71 1003.6
20260509203730 47 279 10.0 15.0 0.00 0.00 0.00 70 1003.5
20260509203233 48 276 7.0 17.0 0.00 0.00 0.00 67 1003.5
20260509202728 50 281 10.0 17.0 0.00 0.00 0.00 62 1003.4
20260509202243 50 300 11.0 17.0 0.00 0.00 0.00 59 1003.0
20260509201723 49 265 10.0 19.0 0.00 0.00 0.00 62 1003.0
20260509201235 49 257 12.0 19.0 0.00 0.00 0.00 64 1003.0
20260509200734 48 273 15.0 19.0 0.00 0.00 0.00 63 1002.9
20260509200236 50 300 11.0 16.0 0.00 0.00 0.00 61 1002.7
20260509195731 51 290 11.0 16.0 0.00 0.00 0.00 57 1002.5
20260509195236 52 317 10.0 16.0 0.00 0.00 0.00 58 1002.4
20260509194738 54 323 9.0 15.0 0.00 0.00 0.00 53 1002.3
20260509194220 53 270 9.0 20.0 0.00 0.00 0.00 52 1002.3
20260509193733 53 298 12.0 28.0 0.00 0.00 0.00 52 1002.2
20260509193217 54 268 16.0 28.0 0.00 0.00 0.00 50 1002.2
20260509192738 54 282 17.0 23.0 0.00 0.00 0.00 50 1002.1
20260509192241 55 272 12.0 23.0 0.00 0.00 0.00 48 1001.9
20260509191725 55 274 15.0 21.0 0.00 0.00 0.00 48 1001.8
20260509191242 55 290 14.0 21.0 0.00 0.00 0.00 48 1001.8
20260509190725 55 272 13.0 20.0 0.00 0.00 0.00 46 1001.6
20260509190241 56 271 10.0 16.0 0.00 0.00 0.00 45 1001.6
20260509185737 55 271 10.0 20.0 0.00 0.00 0.00 49 1001.5
20260509185236 55 287 12.0 24.0 0.00 0.00 0.00 50 1001.5
20260509184718 55 262 15.0 24.0 0.00 0.00 0.00 50 1001.4
20260509184232 55 265 14.0 24.0 0.00 0.00 0.00 49 1001.4
20260509183733 55 254 12.0 23.0 0.00 0.00 0.00 50 1001.3
20260509183218 54 254 14.0 21.0 0.00 0.00 0.00 51 1001.2